Location: Unspecified
(0.0000°N, 0.0000°E)
Time: 11:27:46
(UTC+00:00)

A-11 Canister half - Pass Details

Date: 21 November 2019
Orbit: 1515 x 1685 km, 47.2° (Epoch: 08 December)

Event Time Altitude Azimuth Distance (km) Brightness Sun altitude
Exits shadow 02:24:14 45° 140° (SE) 2,030 9.7 -46.4°
Drops below altitude 10° 02:30:09 10° 140° (SE) 3,728 11.5 -45.1°
Sets 02:33:10 0° 140° (SE) 4,695 12.2 -44.5°
